Location: Oshawa
(43.9000°N, 78.8670°W)
Time: 20:27:38
(UTC-04:00)

Altair - Visible Passes

Search period start: 28 June 2017 00:00
Search period end: 08 July 2017 00:00
Orbit: 1501 x 1682 km, 47.2° (Epoch: 28 June)

Date Brightness Start Highest point End Pass type
(mag) Time Alt. Az. Time Alt. Az. Time Alt. Az.
28 Jun 7.7 01:53:51 34° SSW 01:57:47 52° SE 02:07:09 10° ENE visible
28 Jun 7.7 03:52:39 10° WSW 04:02:17 83° NNW 04:12:20 10° ENE visible
28 Jun 9.0 23:31:21 13° ESE 23:31:21 13° ESE 23:33:43 10° E visible
29 Jun 7.7 01:29:18 36° S 01:32:42 49° SE 01:41:55 10° ENE visible
29 Jun 7.6 03:27:29 10° WSW 03:37:05 85° NNW 03:47:06 10° ENE visible
29 Jun 9.0 23:06:41 11° ESE 23:06:41 11° ESE 23:07:20 10° ESE visible
30 Jun 7.7 01:04:37 36° S 01:07:37 45° SE 01:16:39 10° ENE visible
30 Jun 7.5 03:02:34 11° WSW 03:11:53 87° NNW 03:21:52 10° ENE visible
01 Jul 7.8 00:39:46 35° S 00:42:32 42° SE 00:51:24 10° ENE visible
01 Jul 7.5 02:37:42 12° WSW 02:46:41 90° N 02:56:38 10° ENE visible
01 Jul 7.9 04:42:20 10° W 04:52:02 74° N 05:02:06 10° E visible
02 Jul 7.8 00:14:40 32° S 00:17:29 39° SE 00:26:07 10° ENE visible
02 Jul 7.5 02:12:33 12° WSW 02:21:30 87° SSE 02:31:24 10° ENE visible
02 Jul 7.9 04:17:08 10° W 04:26:48 73° N 04:36:50 10° E visible
02 Jul 7.9 23:49:02 28° S 23:52:26 36° SE 00:00:49 10° ENE visible
03 Jul 7.4 01:46:55 10° WSW 01:56:20 84° SSE 02:06:10 10° ENE visible
03 Jul 7.8 03:51:57 10° W 04:01:34 73° N 04:11:34 10° E visible
03 Jul 8.0 23:22:01 19° S 23:27:23 33° SE 23:35:31 10° ENE visible
04 Jul 7.4 01:21:48 10° WSW 01:31:10 81° SSE 01:40:58 10° ENE visible
04 Jul 7.8 03:26:45 10° W 03:36:20 73° N 03:46:17 10° E visible
04 Jul 8.0 22:54:42 10° S 23:02:21 30° SE 23:10:11 10° ENE visible
05 Jul 7.4 00:56:42 10° SW 01:06:01 77° SSE 01:15:44 10° ENE visible
05 Jul 7.7 03:01:33 10° W 03:11:06 74° N 03:21:02 10° E visible
05 Jul 8.1 22:29:58 10° S 22:37:19 27° SE 22:44:50 10° ENE visible
06 Jul 7.4 00:31:37 10° SW 00:40:53 74° SSE 00:50:31 10° ENE visible
06 Jul 7.7 02:36:22 10° W 02:45:52 74° N 02:55:46 10° E visible
06 Jul 7.7 04:41:31 10° WNW 04:51:16 86° NNE 05:01:20 10° ESE visible
06 Jul 8.2 22:05:18 10° S 22:12:19 25° SE 22:19:27 10° E visible
07 Jul 7.4 00:06:33 10° SW 00:15:45 70° SSE 00:25:18 10° ENE visible
07 Jul 7.7 02:11:11 10° W 02:20:39 75° N 02:30:31 10° ENE visible
07 Jul 7.7 04:16:21 10° WNW 04:26:03 84° NNE 04:36:07 10° ESE visible
07 Jul 8.3 21:40:40 10° S 21:47:18 23° SE 21:54:02 10° E visible
